Regional Weather Roundup
Issued by NWS

Home | Current Version | Previous Version | Graphics & Text | Print | Product List | Glossary On
Versions: 1 2 3 4 5 6 7 8 9 10 11 12 13 14 15 16 17 18 19 20 21 22 23 24 25 26 27 28 29 30 31 32 33 34 35 36 37 38 39 40 41 42 43 44 45 46 47 48 49 50
100
ASUS44 KLIX 290801
RWRLA
LOUISIANA WEATHER ROUNDUP
NATIONAL WEATHER SERVICE NEW ORLEANS LA
300 AM CDT TUE JUL 29 2014

NOTE: "FAIR" INDICATES FEW OR NO CLOUDS BELOW 12,000 FEET WITH NO
      SIGNIFICANT WEATHER AND/OR OBSTRUCTIONS TO VISIBILITY.
      SKY/WX - SKY CONDITION AND SIGNIFICANT WEATHER.
      TMP - AIR TEMPERATURE.    DP   - DEWPOINT TEMPERATURE.
      RH  - RELATIVE HUMIDITY.  PRES - PRESSURE.
      HX  - HEAT INDEX.         WCI  - WIND CHILL INDEX.

*  THESE STATIONS ARE NOT NWS OR FAA STATIONS AND ARE NOT UNDER
   NWS QUALITY CONTROL.

LAZ040-048-061>063-065-066-069-290900-
SOUTHEAST LOUISIANA

CITY           SKY/WX    TMP DP  RH WIND       PRES   REMARKS
N.O. AUDUBON     N/A     85  72  66 MISG        N/A
N.O. INTL ARPT MOCLDY    83  70  64 NE12      29.99F
N.O. LAKEFRONT CLOUDY    83  71  67 NE20      30.00S
N.O. DOWNTOWN* CLOUDY    82  68  61 N7        30.00F
SLIDELL        PTCLDY    76  72  87 CALM      29.99S
BATON ROUGE    MOCLDY    75  72  90 CALM      30.01R
BOOTHVILLE     CLOUDY    79  75  87 NW7       29.98F
BELLE CHASSE   CLOUDY    82  72  71 NE5       29.98F
BOGALUSA*      FAIR      75  69  81 CALM      30.01S
GALLIANO*      NOT AVBL
NEW ROADS*     FAIR      74  73  95 W3        30.02S
GONZALES*      FAIR      75  75 100 CALM      30.00F
HAMMOND*       PTCLDY    77  70  78 CALM      30.01F
HOUMA*         MOCLDY    79  71  76 NW3       29.99F
PORT FOURCHON* PTSUNNY   84  77  79 NW9       30.00F

$$

LAZ041-044-053-054-290900-
SOUTHWEST LOUISIANA

CITY           SKY/WX    TMP DP  RH WIND       PRES   REMARKS
LAKE CHARLES   MOCLDY    80  73  79 NW6       30.02S
LAFAYETTE      NOT AVBL
PATTERSON      CLOUDY    77  73  88 N3        30.03F
SALT POINT       N/A     82  76  81 E3        29.98F
NEW IBERIA     CLOUDY    79  75  87 N3        30.00F
CHENAULT AIRPK NOT AVBL

$$

LAZ027-028-290900-
CENTRAL LOUISIANA

CITY           SKY/WX    TMP DP  RH WIND       PRES   REMARKS
FORT POLK      MOCLDY    75  72  90 N5        30.03F
ALEXANDRIA INT MOCLDY    75  73  93 N5        30.03S
ALEXANDRIA     PTCLDY    73  71  93 CALM      30.05S

$$

LAZ001-002-290900-
NORTHWEST LOUISIANA

CITY           SKY/WX    TMP DP  RH WIND       PRES   REMARKS
SHREVEPORT     MOCLDY    75  70  84 CALM      30.06S
BARKSDALE AFB  CLOUDY    74  70  86 CALM      30.06F
DTN SHREVEPORT PTCLDY    73  69  87 CALM      30.06F

$$

LAZ014-016-290900-
NORTHEAST LOUISIANA

CITY           SKY/WX    TMP DP  RH WIND       PRES   REMARKS
MONROE         PTCLDY    71  65  81 CALM      30.06R
TALLULAH       PTCLDY    67  64  90 CALM      30.03S

$$




USA.gov is the U.S. government's official web portal to all federal, state and local government web resources and services.